TimeCET,TemperatureF,Dew PointF,Humidity,Sea Level PressureIn,VisibilityMPH,Wind Direction,Wind SpeedMPH,Gust SpeedMPH,PrecipitationIn,Events,Conditions,WindDirDegrees,DateUTC
12:20 AM,51.8,42.8,71,29.98,-9999.0,East,8.1,-,N/A,,Clear,80,2013-03-04 23:20:00
12:50 AM,51.8,42.8,71,29.98,-9999.0,ENE,8.1,-,N/A,,Clear,70,2013-03-04 23:50:00
1:20 AM,51.8,42.8,71,29.98,-9999.0,ENE,10.4,-,N/A,,Clear,70,2013-03-05 00:20:00
1:50 AM,51.8,42.8,71,29.95,-9999.0,ENE,11.5,-,N/A,,Clear,70,2013-03-05 00:50:00
2:20 AM,51.8,42.8,71,29.95,-9999.0,ENE,10.4,-,N/A,,Clear,60,2013-03-05 01:20:00
2:50 AM,51.8,44.6,76,29.92,-9999.0,ENE,10.4,-,N/A,,Clear,60,2013-03-05 01:50:00
3:20 AM,53.6,44.6,72,29.92,-9999.0,ENE,11.5,-,N/A,,Clear,70,2013-03-05 02:20:00
3:50 AM,53.6,44.6,72,29.89,-9999.0,ENE,10.4,-,N/A,,Clear,60,2013-03-05 02:50:00
4:20 AM,55.4,44.6,67,29.89,-9999.0,ENE,10.4,-,N/A,,Clear,60,2013-03-05 03:20:00
4:50 AM,55.4,44.6,67,29.86,-9999.0,East,15.0,-,N/A,,Clear,80,2013-03-05 03:50:00
5:20 AM,55.4,44.6,67,29.86,-9999.0,East,11.5,-,N/A,,Clear,80,2013-03-05 04:20:00
5:50 AM,55.4,46.4,72,29.86,6.2,East,10.4,-,N/A,,Light Drizzle,80,2013-03-05 04:50:00
6:20 AM,55.4,46.4,72,29.86,-9999.0,ENE,10.4,-,N/A,,Clear,70,2013-03-05 05:20:00
6:50 AM,55.4,48.2,77,29.83,6.2,East,9.2,-,N/A,,Light Drizzle,80,2013-03-05 05:50:00
7:20 AM,57.2,48.2,72,29.83,6.2,East,9.2,-,N/A,,Light Drizzle,80,2013-03-05 06:20:00
7:50 AM,57.2,48.2,72,29.83,6.2,East,12.7,-,N/A,,Light Drizzle,80,2013-03-05 06:50:00
8:20 AM,59.0,48.2,67,29.83,6.2,East,13.8,-,N/A,,Light Drizzle,90,2013-03-05 07:20:00
8:50 AM,59.0,48.2,67,29.83,6.2,East,16.1,-,N/A,,Light Drizzle,90,2013-03-05 07:50:00
9:20 AM,59.0,48.2,67,29.83,6.2,East,11.5,23.0,N/A,,Unknown,90,2013-03-05 08:20:00
9:50 AM,60.8,46.4,59,29.83,6.2,East,11.5,-,N/A,,Light Drizzle,100,2013-03-05 08:50:00
10:20 AM,60.8,46.4,59,29.80,6.2,East,16.1,28.8,N/A,,Light Drizzle,90,2013-03-05 09:20:00
10:50 AM,62.6,46.4,55,29.80,6.2,East,12.7,-,N/A,,Light Drizzle,90,2013-03-05 09:50:00
11:20 AM,64.4,44.6,49,29.80,6.2,ESE,12.7,-,N/A,,Unknown,110,2013-03-05 10:20:00
11:50 AM,64.4,46.4,52,29.80,-9999.0,ESE,11.5,25.3,N/A,,Clear,120,2013-03-05 10:50:00
12:20 PM,64.4,46.4,52,29.77,-9999.0,ESE,9.2,-,N/A,,Clear,110,2013-03-05 11:20:00
12:50 PM,64.4,48.2,56,29.74,-9999.0,NE,8.1,-,N/A,,Clear,50,2013-03-05 11:50:00
1:20 PM,64.4,46.4,52,29.71,-9999.0,ESE,13.8,-,N/A,,Clear,120,2013-03-05 12:20:00
1:50 PM,64.4,46.4,52,29.71,-9999.0,ESE,13.8,-,N/A,,Clear,120,2013-03-05 12:50:00
2:20 PM,64.4,46.4,52,29.71,-9999.0,ESE,15.0,-,N/A,,Clear,120,2013-03-05 13:20:00
2:50 PM,66.2,48.2,52,29.71,-9999.0,SE,13.8,25.3,N/A,,Clear,130,2013-03-05 13:50:00
3:20 PM,64.4,48.2,56,29.71,-9999.0,East,8.1,-,N/A,,Clear,90,2013-03-05 14:20:00
3:50 PM,64.4,48.2,56,29.71,-9999.0,East,6.9,-,N/A,,Clear,90,2013-03-05 14:50:00
4:20 PM,62.6,50.0,63,29.71,6.2,Variable,2.3,-,N/A,Rain,Light Rain,0,2013-03-05 15:20:00
4:50 PM,60.8,51.8,72,29.68,6.2,NE,9.2,-,N/A,Rain,Light Rain,50,2013-03-05 15:50:00
5:20 PM,60.8,50.0,68,29.68,-9999.0,ENE,6.9,-,N/A,,Clear,70,2013-03-05 16:20:00
5:50 PM,59.0,51.8,77,29.68,6.2,ENE,11.5,-,N/A,Rain,Light Rain,70,2013-03-05 16:50:00
6:20 PM,59.0,51.8,77,29.65,-9999.0,NE,9.2,-,N/A,,Clear,40,2013-03-05 17:20:00
6:50 PM,59.0,50.0,72,29.68,-9999.0,NE,8.1,-,N/A,,Clear,40,2013-03-05 17:50:00
7:20 PM,60.8,48.2,63,29.65,-9999.0,East,8.1,-,N/A,,Clear,100,2013-03-05 18:20:00
7:50 PM,62.6,46.4,55,29.65,-9999.0,ESE,10.4,-,N/A,,Clear,110,2013-03-05 18:50:00
8:20 PM,64.4,46.4,52,29.62,-9999.0,ESE,13.8,-,N/A,,Clear,120,2013-03-05 19:20:00
8:50 PM,64.4,48.2,56,29.59,-9999.0,East,12.7,-,N/A,,Clear,80,2013-03-05 19:50:00
9:20 PM,64.4,48.2,56,29.59,6.2,East,15.0,27.6,N/A,,Partly Cloudy,100,2013-03-05 20:20:00
9:50 PM,64.4,48.2,56,29.56,6.2,East,16.1,-,N/A,,Partly Cloudy,80,2013-03-05 20:50:00
10:20 PM,64.4,48.2,56,29.59,6.2,NNE,4.6,-,N/A,,Partly Cloudy,20,2013-03-05 21:20:00
10:50 PM,68.0,48.2,49,29.59,6.2,Variable,17.3,-,N/A,,Partly Cloudy,0,2013-03-05 21:50:00
11:20 PM,66.2,48.2,52,29.62,6.2,ESE,8.1,-,N/A,,Partly Cloudy,110,2013-03-05 22:20:00
11:50 PM,66.2,48.2,52,29.62,6.2,SE,6.9,-,N/A,,Partly Cloudy,130,2013-03-05 22:50:00